User: anonymous
Location: Columbia
(38.9520°N, 92.3340°W)
Time: 22:06:38
(UTC-05:00)
Language:

FENGYUN 3A - Orbit

View from above orbital plane
View from above orbital plane
View from above satellite
View from above satellite

Ground track
Ground track

The orbit data is extracted from the following two-line orbital elements,

1 32958U 08026A   14206.75624900 -.00000012  00000-0  14283-4 0  2022
2 32958 098.5520 264.2899 0010410 102.2229 258.0111 14.19459772319316
Epoch (UTC): 25 July 2014 18:08:59
Eccentricity: 0.0010410
inclination: 98.5520°
perigee height: 819 km
apogee height: 834 km
right ascension of ascending node: 264.2899°
argument of perigee: 102.2229°
revolutions per day: 14.19459772
mean anomaly at epoch: 258.0111°
orbit number at epoch: 31931

The dashed part of the orbit path shows where the satellite is in the earth's shadow,  

DLR